Regional Weather Roundup
Issued by NWS

Home | Current Version | Previous Version | Graphics & Text | Print | Product List | Glossary On
Versions: 1 2 3 4 5 6 7 8 9 10 11 12 13 14 15 16 17 18 19 20 21 22 23 24 25 26 27 28 29 30 31 32 33 34 35 36 37 38 39 40 41 42 43 44 45 46 47 48 49 50
000
ASUS45 KTFX 220119
RWRMT
MONTANA HOURLY WEATHER ROUNDUP
NATIONAL WEATHER SERVICE GREAT FALLS MT
719 PM MDT THU AUG 21 2014

NOTE: "FAIR" INDICATES FEW OR NO CLOUDS BELOW 12000 FEET WITH NO
SIGNIFICANT WEATHER AND/OR OBSTRUCTIONS TO VISIBILITY.

* THESE STATIONS ARE NOT UNDER NWS QUALITY CONTROL. THEY DO NOT
   REPORT WEATHER SUCH AS PRECIPITATION OR FOG.

MTZ001>007-043-220200-
WEST OF THE DIVIDE
CITY           SKY/WX    TMP DP  RH WIND       PRES   REMARKS
KALISPELL      CLOUDY    64  48  56 NE16      30.03F
MISSOULA       CLOUDY    70  50  49 NW14      29.98F
BUTTE          CLOUDY    63  45  52 SE6       30.09R
MULLAN PASS    MOCLDY    52  46  80 SE7       30.09R
* ESSEX        N/A       58  44  60 E6         N/A
* LINCOLN      N/A       56  52  87 NE8G21     N/A
* LOOKOUT PASS N/A       59  47  65 S5         N/A
* POLSON       N/A       62  52  70 NW2        N/A
* RONAN APT    CLOUDY    66  54  65 NW13G18    N/A
* SEELEY LAKE  N/A       70  45  41 N9G14      N/A
* THOMP F APT  PTCLDY    46  44  93 NE5G23     N/A
* YAAK HILL    N/A       67  49  53 S1         N/A
$$

MTZ008-052>055-220200-
SOUTHWEST MONTANA
CITY           SKY/WX    TMP DP  RH WIND       PRES   REMARKS
BOZEMAN        MOCLDY    64  50  61 N7        30.05F
DILLON         TSTM      55  52  90 NE14      30.07R
W YELLOWSTONE  LGT RAIN  48  46  93 S7        30.21R VSB 3
* THREE FORKS  CLOUDY    66  66 100 N/A        N/A
* BOULDER HILL N/A       58  42  55 N9G16      N/A
* MONIDA PASS  N/A       51  46  83 SE18       N/A
* RAYNOLDS PAS N/A       51  32  48 SE14       N/A
* WHITEHALL    N/A       66  49  54 E4G12      N/A
* WISE RIVER   N/A       64  43  47 SE11G17    N/A
$$

MTZ009>010-012-014-046-048-049-054-220200-
EAST SLOPES AND CENTRAL MONTANA
CITY           SKY/WX    TMP DP  RH WIND       PRES   REMARKS
CUT BANK       CLOUDY    54  48  80 N16       30.16S
GREAT FALLS    CLOUDY    59  52  78 NE17      30.11R
HELENA         LGT RAIN  61  54  78 NW9       30.06R
MALMSTROM AFB  MOCLDY    57  54  90 N17G24    30.11S
* CONRAD       PTCLDY    55  55 100 NW10       N/A
* DEARBORN     N/A       62  50  65 N8         N/A
* EAST GLACIER N/A       47  47 100 SE4        N/A
* MONARCH      N/A       56  43  62 NW7        N/A
* PENDROY      N/A       52  50  93 NE10       N/A
* ROGERS PASS  N/A       49  48  96 S2         N/A
* SAINT MARY   N/A       49  48  96 N4         N/A
* SWEET GRASS  N/A       51  51 100 N14G24     N/A
* WHITE SULPH  N/A       61  45  56 NE5        N/A
$$

MTZ011-013-016-021-035-040-045-047-050-051-220200-
NORTH CENTRAL MONTANA
CITY           SKY/WX    TMP DP  RH WIND       PRES   REMARKS
HAVRE          CLOUDY    61  50  67 N15       30.10R
LEWISTOWN      MOCLDY    63  52  68 W5        30.11F
* FORT BENTON  PTCLDY    61  52  72 N16G21    30.10R
* CHESTER      N/A       58  50  75 NE10G16    N/A
* DENTON       N/A       68  50  53 SW4        N/A
* GEYSER       N/A       63  44  50 W12        N/A
* JUDITH GAP   N/A       57  53  87 N9         N/A
* LOMA         N/A       59  52  78 VRB24G29    N/A
$$

MTZ017>020-022>027-061-062-220200-
NORTHEAST MONTANA
CITY           SKY/WX    TMP DP  RH WIND       PRES   REMARKS
GLASGOW        LGT RAIN  61  61 100 NE8       30.03S
GLENDIVE       CLOUDY    66  61  84 NE7       30.01R
JORDAN         CLOUDY    63  57  81 N10       30.04S
SIDNEY         MOCLDY    72  61  68 CALM      29.98S
WOLF POINT     RAIN      63  61  93 S3        30.02R VSB 2
* BEAVER HILL  N/A       68  59  73 VRB13      N/A
* CIRCLE       N/A       62  59  90 N/A        N/A
* LINDSAY DVD  N/A       68  56  66 N9         N/A
* SACO         N/A       64  58  81 NE10       N/A
$$

MTZ028>042-056>058-220200-
SOUTHCENTRAL AND SOUTHEAST MONTANA
CITY           SKY/WX    TMP DP  RH WIND       PRES   REMARKS
BAKER          CLOUDY    72  59  64 NE12      29.97F
BILLINGS       CLOUDY    61  57  87 NE7       30.09S
LIVINGSTON     PTCLDY    63  48  58 E13       30.08F
MILES CITY     LGT RAIN  68  61  78 W12       30.00R
* LAUREL APT   MOCLDY    61  55  81 N7         N/A
* ROUNDUP APT  CLOUDY    59  54  84 N/A        N/A
* ALZADA       N/A       78  51  39 E10        N/A
* HYSHAM       N/A       61  57  87 NW4        N/A
* REED POINT   N/A       62  55  78 E8         N/A
* ROSCOE HILL  N/A       54  48  80 N2         N/A
$$

REGIONAL REPORTS...DAKOTAS
CITY           SKY/WX    TMP DP  RH WIND       PRES   REMARKS
WILLISTON      MOCLDY    72  57  59 NE10      29.98R
DICKINSON      PTCLDY    70  61  73 N9        29.96S
BEACH          N/A       66  63  90 NE8       30.00R
CROSBY         CLEAR     66  61  84 N7        29.99R
TIOGA          CLEAR     66  64  93 N5        30.02R
WATFORD CITY   PTCLDY    70  57  64 N6        29.96R
BISMARCK       CLEAR     75  63  66 N14       29.92R
GRAND FORKS    MOCLDY    75  70  85 N3        29.84R
FARGO          CLEAR     77  70  79 CALM      29.83R
BUFFALO SD     PTCLDY    72  59  64 NE13      29.90S
RAPID CITY     TSTM      73  57  57 N10       29.94F
$$

REGIONAL REPORTS...WYOMING/IDAHO/WASHINGTON
CITY           SKY/WX    TMP DP  RH WIND       PRES   REMARKS
GILLETTE       CLOUDY    72  52  49 NW21G29   29.98S
SHERIDAN       CLOUDY    63  57  81 NW10      30.06R
CODY           PTCLDY    55  52  90 N8        30.13R
YELLOWSTONE LA MOCLDY    54  45  72 CALM      30.25R
SALMON         CLOUDY    66  54  65 SE6       29.95R
MULLAN PASS    MOCLDY    52  46  80 SE7       30.09S
SAND POINT     MOCLDY    68  50  53 NE14      29.94S
SPOKANE        CLOUDY    79  43  28 NW6       29.90F
$$

REGIONAL REPORTS...ALBERTA
CITY           SKY/WX    TMP DP  RH WIND       PRES   REMARKS
CALGARY        CLOUDY    54  46  74 NE9       30.20S
LETHBRIDGE     CLOUDY    55  50  83 NE6       30.18R
MEDICINE HAT   MOCLDY    59  54  84 NE5       30.15S
EDMONTON       MOCLDY    57  43  60 E9        30.22R
WATERTON GATE  N/A       48  46  93 N2         N/A
CARDSTON       N/A       52  50  93 NE6        N/A
$$

REGIONAL REPORTS...SASKATCHEWAN
CITY           SKY/WX    TMP DP  RH WIND       PRES   REMARKS
SWIFT CURRENT  LGT RAIN  57  55  93 N9        30.12R
REGINA         CLOUDY    64  55  73 N10       30.05R
VAL MARIE      N/A       63  55  75 E7         N/A
ASSINIBOIA     N/A       64  54  70 NE10       N/A
CORONACH       N/A       64  54  70 N13G18     N/A

$$




USA.gov is the U.S. government's official web portal to all federal, state and local government web resources and services.